Time,TemperatureF,DewpointF,PressureIn,WindDirection,WindDirectionDegrees,WindSpeedMPH,WindSpeedGustMPH,Humidity,HourlyPrecipIn,Conditions,Clouds,dailyrainin,SoftwareType,DateUTC
2013-10-26 00:05:00,44.0,30.6,30.09,SSW,204,3.0,7.0,59,0.00,,,0.00,Wunderground v.1.15,2013-10-26 05:05:00,
2013-10-26 00:10:00,44.0,30.6,30.09,SW,215,3.0,4.0,59,0.00,,,0.00,Wunderground v.1.15,2013-10-26 05:10:00,
2013-10-26 00:20:00,44.1,30.3,30.09,SSW,209,3.0,3.0,58,0.00,,,0.00,Wunderground v.1.15,2013-10-26 05:20:00,
2013-10-26 00:25:00,44.1,30.3,30.08,South,189,3.0,8.0,58,0.00,,,0.00,Wunderground v.1.15,2013-10-26 05:25:00,
2013-10-26 00:35:00,44.0,30.6,30.08,SW,225,3.0,4.0,59,0.00,,,0.00,Wunderground v.1.15,2013-10-26 05:35:00,
2013-10-26 00:45:00,43.9,30.5,30.08,SW,225,3.0,4.0,59,0.00,,,0.00,Wunderground v.1.15,2013-10-26 05:45:00,
2013-10-26 00:50:00,43.8,30.4,30.08,SW,221,3.0,3.0,59,0.00,,,0.00,Wunderground v.1.15,2013-10-26 05:50:00,
2013-10-26 01:00:00,43.7,30.3,30.08,WSW,248,2.0,2.0,59,0.00,,,0.00,Wunderground v.1.15,2013-10-26 06:00:00,
2013-10-26 01:10:00,43.5,30.5,30.07,WSW,250,2.0,2.0,60,0.00,,,0.00,Wunderground v.1.15,2013-10-26 06:10:00,
2013-10-26 01:20:00,43.4,30.4,30.07,WSW,254,1.0,1.0,60,0.00,,,0.00,Wunderground v.1.15,2013-10-26 06:20:00,
2013-10-26 01:25:00,43.4,30.4,30.08,West,272,2.0,2.0,60,0.00,,,0.00,Wunderground v.1.15,2013-10-26 06:25:00,
2013-10-26 01:35:00,43.7,30.3,30.07,West,273,2.0,3.0,59,0.00,,,0.00,Wunderground v.1.15,2013-10-26 06:35:00,
2013-10-26 01:40:00,43.9,30.5,30.07,West,265,2.0,2.0,59,0.00,,,0.00,Wunderground v.1.15,2013-10-26 06:40:00,
2013-10-26 01:50:00,44.1,30.3,30.07,West,273,2.0,2.0,58,0.00,,,0.00,Wunderground v.1.15,2013-10-26 06:50:00,
2013-10-26 02:00:00,44.3,30.4,30.06,West,262,2.0,2.0,58,0.00,,,0.00,Wunderground v.1.15,2013-10-26 07:00:00,
2013-10-26 02:05:00,44.3,30.4,30.06,SSW,192,2.0,2.0,58,0.00,,,0.00,Wunderground v.1.15,2013-10-26 07:05:00,
2013-10-26 02:15:00,44.4,30.5,30.05,SSW,207,2.0,3.0,58,0.00,,,0.00,Wunderground v.1.15,2013-10-26 07:15:00,
2013-10-26 02:20:00,44.5,30.6,30.04,South,188,2.0,2.0,58,0.00,,,0.00,Wunderground v.1.15,2013-10-26 07:20:00,
2013-10-26 02:30:00,44.5,30.6,30.04,WSW,247,2.0,2.0,58,0.00,,,0.00,Wunderground v.1.15,2013-10-26 07:30:00,
2013-10-26 02:35:00,44.6,30.7,30.03,SW,225,2.0,4.0,58,0.00,,,0.00,Wunderground v.1.15,2013-10-26 07:35:00,
2013-10-26 02:45:00,44.8,30.5,30.03,WSW,238,3.0,4.0,57,0.00,,,0.00,Wunderground v.1.15,2013-10-26 07:45:00,
2013-10-26 02:55:00,45.1,30.8,30.02,SSW,198,3.0,4.0,57,0.00,,,0.00,Wunderground v.1.15,2013-10-26 07:55:00,
2013-10-26 03:00:00,45.1,30.8,30.01,SW,229,2.0,2.0,57,0.00,,,0.00,Wunderground v.1.15,2013-10-26 08:00:00,
2013-10-26 03:10:00,45.4,30.6,30.01,WSW,250,3.0,4.0,56,0.00,,,0.00,Wunderground v.1.15,2013-10-26 08:10:00,
2013-10-26 03:15:00,45.5,30.7,30.00,WSW,246,3.0,4.0,56,0.00,,,0.00,Wunderground v.1.15,2013-10-26 08:15:00,
2013-10-26 03:25:00,45.8,30.5,29.99,WNW,290,3.0,6.0,55,0.00,,,0.00,Wunderground v.1.15,2013-10-26 08:25:00,
2013-10-26 03:35:00,46.1,30.4,29.98,SW,220,4.0,6.0,54,0.00,,,0.00,Wunderground v.1.15,2013-10-26 08:35:00,
2013-10-26 03:45:00,46.3,30.5,29.98,SSW,194,4.0,6.0,54,0.00,,,0.00,Wunderground v.1.15,2013-10-26 08:45:00,
2013-10-26 03:50:00,46.3,30.5,29.97,West,259,4.0,4.0,54,0.00,,,0.00,Wunderground v.1.15,2013-10-26 08:50:00,
2013-10-26 04:00:00,46.2,30.5,29.97,West,269,3.0,4.0,54,0.00,,,0.00,Wunderground v.1.15,2013-10-26 09:00:00,
2013-10-26 04:05:00,46.1,30.4,29.97,West,279,3.0,18.0,54,0.00,,,0.00,Wunderground v.1.15,2013-10-26 09:05:00,
2013-10-26 04:15:00,46.0,30.3,29.96,West,265,4.0,4.0,54,0.00,,,0.00,Wunderground v.1.15,2013-10-26 09:15:00,
2013-10-26 04:25:00,45.9,30.6,29.96,SSW,213,3.0,4.0,55,0.00,,,0.00,Wunderground v.1.15,2013-10-26 09:25:00,
2013-10-26 04:30:00,45.7,30.4,29.96,West,261,3.0,5.0,55,0.00,,,0.00,Wunderground v.1.15,2013-10-26 09:30:00,
2013-10-26 04:40:00,45.6,30.3,29.95,WNW,286,4.0,7.0,55,0.00,,,0.00,Wunderground v.1.15,2013-10-26 09:40:00,
2013-10-26 04:50:00,45.5,30.7,29.95,SW,215,4.0,4.0,56,0.00,,,0.00,Wunderground v.1.15,2013-10-26 09:50:00,
2013-10-26 05:00:00,45.1,30.8,29.95,WSW,258,3.0,3.0,57,0.00,,,0.00,Wunderground v.1.15,2013-10-26 10:00:00,
2013-10-26 05:10:00,45.0,31.1,29.94,SW,219,3.0,3.0,58,0.00,,,0.00,Wunderground v.1.15,2013-10-26 10:10:00,
2013-10-26 05:20:00,44.9,31.4,29.94,WSW,237,3.0,3.0,59,0.00,,,0.00,Wunderground v.1.15,2013-10-26 10:20:00,
2013-10-26 05:25:00,44.8,31.3,29.94,SW,232,4.0,4.0,59,0.00,,,0.00,Wunderground v.1.15,2013-10-26 10:25:00,
2013-10-26 05:35:00,44.3,31.7,29.93,West,267,4.0,5.0,61,0.00,,,0.00,Wunderground v.1.15,2013-10-26 10:35:00,
2013-10-26 05:45:00,43.9,31.7,29.93,WSW,244,3.0,3.0,62,0.00,,,0.00,Wunderground v.1.15,2013-10-26 10:45:00,
2013-10-26 05:50:00,43.8,31.6,29.93,West,264,4.0,4.0,62,0.00,,,0.00,Wunderground v.1.15,2013-10-26 10:50:00,
2013-10-26 06:00:00,43.8,32.0,29.94,West,275,3.0,7.0,63,0.00,,,0.00,Wunderground v.1.15,2013-10-26 11:00:00,
2013-10-26 06:05:00,44.0,31.8,29.94,WSW,246,3.0,7.0,62,0.00,,,0.00,Wunderground v.1.15,2013-10-26 11:05:00,
2013-10-26 06:15:00,44.2,32.4,29.94,West,265,3.0,3.0,63,0.00,,,0.00,Wunderground v.1.15,2013-10-26 11:15:00,
2013-10-26 06:25:00,44.7,32.5,29.93,West,265,3.0,3.0,62,0.00,,,0.00,Wunderground v.1.15,2013-10-26 11:25:00,
2013-10-26 06:30:00,44.9,32.7,29.94,West,263,3.0,3.0,62,0.00,,,0.00,Wunderground v.1.15,2013-10-26 11:30:00,
2013-10-26 06:40:00,45.3,33.0,29.93,WSW,254,3.0,4.0,62,0.00,,,0.00,Wunderground v.1.15,2013-10-26 11:40:00,
2013-10-26 06:50:00,45.6,32.9,29.93,West,263,3.0,3.0,61,0.00,,,0.00,Wunderground v.1.15,2013-10-26 11:50:00,
2013-10-26 06:55:00,45.5,32.8,29.93,SSW,201,3.0,4.0,61,0.00,,,0.00,Wunderground v.1.15,2013-10-26 11:55:00,
2013-10-26 07:05:00,45.3,33.0,29.93,West,264,4.0,9.0,62,0.00,,,0.00,Wunderground v.1.15,2013-10-26 12:05:00,
2013-10-26 07:10:00,45.3,33.0,29.93,West,265,3.0,3.0,62,0.00,,,0.00,Wunderground v.1.15,2013-10-26 12:10:00,
2013-10-26 07:20:00,45.4,33.5,29.93,WSW,254,3.0,6.0,63,0.00,,,0.00,Wunderground v.1.15,2013-10-26 12:20:00,
2013-10-26 07:30:00,45.4,33.5,29.92,WSW,246,3.0,4.0,63,0.00,,,0.00,Wunderground v.1.15,2013-10-26 12:30:00,
2013-10-26 07:35:00,45.4,33.5,29.92,West,270,3.0,9.0,63,0.00,,,0.00,Wunderground v.1.15,2013-10-26 12:35:00,
2013-10-26 07:45:00,45.5,34.0,29.92,West,279,2.0,5.0,64,0.00,,,0.00,Wunderground v.1.15,2013-10-26 12:45:00,
2013-10-26 07:50:00,45.5,34.0,29.92,WNW,300,2.0,5.0,64,0.00,,,0.00,Wunderground v.1.15,2013-10-26 12:50:00,
2013-10-26 08:00:00,45.5,34.0,29.92,SSW,212,3.0,3.0,64,0.00,,,0.00,Wunderground v.1.15,2013-10-26 13:00:00,
2013-10-26 08:10:00,45.6,34.1,29.92,West,263,3.0,3.0,64,0.00,,,0.00,Wunderground v.1.15,2013-10-26 13:10:00,
2013-10-26 08:20:00,45.6,34.5,29.92,West,265,2.0,2.0,65,0.00,,,0.00,Wunderground v.1.15,2013-10-26 13:20:00,
2013-10-26 08:30:00,45.7,35.0,29.92,West,277,2.0,5.0,66,0.00,,,0.00,Wunderground v.1.15,2013-10-26 13:30:00,
2013-10-26 08:35:00,45.7,35.0,29.93,WSW,246,3.0,5.0,66,0.00,,,0.00,Wunderground v.1.15,2013-10-26 13:35:00,
2013-10-26 08:45:00,45.9,35.2,29.93,WNW,284,3.0,6.0,66,0.00,,,0.00,Wunderground v.1.15,2013-10-26 13:45:00,
2013-10-26 08:50:00,46.4,35.7,29.93,West,266,3.0,6.0,66,0.00,,,0.00,Wunderground v.1.15,2013-10-26 13:50:00,
2013-10-26 09:00:00,46.8,35.6,29.93,WSW,246,3.0,3.0,65,0.00,,,0.00,Wunderground v.1.15,2013-10-26 14:00:00,
2013-10-26 09:10:00,47.3,35.7,29.92,West,269,3.0,8.0,64,0.00,,,0.00,Wunderground v.1.15,2013-10-26 14:10:00,
2013-10-26 09:15:00,47.6,36.4,29.93,West,265,4.0,8.0,65,0.00,,,0.00,Wunderground v.1.15,2013-10-26 14:15:00,
2013-10-26 09:25:00,48.2,36.6,29.93,WNW,284,3.0,5.0,64,0.00,,,0.00,Wunderground v.1.15,2013-10-26 14:25:00,
2013-10-26 09:30:00,48.6,37.0,29.92,WSW,257,3.0,11.0,64,0.00,,,0.00,Wunderground v.1.15,2013-10-26 14:30:00,
2013-10-26 09:40:00,49.3,36.8,29.92,SW,214,3.0,18.0,62,0.00,,,0.00,Wunderground v.1.15,2013-10-26 14:40:00,
2013-10-26 09:50:00,49.9,37.4,29.92,West,266,4.0,4.0,62,0.00,,,0.00,Wunderground v.1.15,2013-10-26 14:50:00,
2013-10-26 10:00:00,50.9,38.3,29.92,NNW,346,3.0,4.0,62,0.00,,,0.00,Wunderground v.1.15,2013-10-26 15:00:00,
2013-10-26 10:05:00,51.4,38.0,29.92,WSW,249,3.0,4.0,60,0.00,,,0.00,Wunderground v.1.15,2013-10-26 15:05:00,
2013-10-26 10:15:00,51.6,38.6,29.92,West,276,3.0,5.0,61,0.00,,,0.00,Wunderground v.1.15,2013-10-26 15:15:00,
2013-10-26 10:20:00,51.7,38.3,29.92,WSW,246,3.0,3.0,60,0.00,,,0.00,Wunderground v.1.15,2013-10-26 15:20:00,
2013-10-26 10:30:00,51.1,38.1,29.92,NW,306,4.0,4.0,61,0.00,,,0.00,Wunderground v.1.15,2013-10-26 15:30:00,
2013-10-26 10:40:00,51.4,38.4,29.92,West,261,3.0,3.0,61,0.00,,,0.00,Wunderground v.1.15,2013-10-26 15:40:00,
2013-10-26 10:45:00,51.9,38.9,29.92,West,279,2.0,3.0,61,0.00,,,0.00,Wunderground v.1.15,2013-10-26 15:45:00,
2013-10-26 10:55:00,52.7,38.8,29.93,WNW,286,4.0,4.0,59,0.00,,,0.00,Wunderground v.1.15,2013-10-26 15:55:00,
2013-10-26 11:00:00,53.1,38.7,29.93,WNW,282,5.0,5.0,58,0.00,,,0.00,Wunderground v.1.15,2013-10-26 16:00:00,
2013-10-26 11:10:00,53.5,39.1,29.93,West,277,3.0,3.0,58,0.00,,,0.00,Wunderground v.1.15,2013-10-26 16:10:00,
2013-10-26 11:15:00,53.6,38.7,29.93,WSW,241,2.0,3.0,57,0.00,,,0.00,Wunderground v.1.15,2013-10-26 16:15:00,
2013-10-26 11:25:00,53.9,38.6,29.94,West,273,3.0,3.0,56,0.00,,,0.00,Wunderground v.1.15,2013-10-26 16:25:00,
2013-10-26 11:35:00,54.2,38.8,29.93,West,269,3.0,4.0,56,0.00,,,0.00,Wunderground v.1.15,2013-10-26 16:35:00,
2013-10-26 11:40:00,54.1,38.3,29.93,WNW,303,3.0,3.0,55,0.00,,,0.00,Wunderground v.1.15,2013-10-26 16:40:00,
2013-10-26 11:50:00,54.3,38.0,29.93,NW,311,3.0,3.0,54,0.00,,,0.00,Wunderground v.1.15,2013-10-26 16:50:00,
2013-10-26 11:55:00,54.1,37.8,29.93,West,277,3.0,3.0,54,0.00,,,0.00,Wunderground v.1.15,2013-10-26 16:55:00,
2013-10-26 12:05:00,54.4,37.6,29.94,WSW,253,2.0,3.0,53,0.00,,,0.00,Wunderground v.1.15,2013-10-26 17:05:00,
2013-10-26 12:15:00,54.2,36.5,29.94,WNW,290,3.0,5.0,51,0.00,,,0.00,Wunderground v.1.15,2013-10-26 17:15:00,
2013-10-26 12:20:00,54.7,35.9,29.94,WNW,296,3.0,5.0,49,0.00,,,0.00,Wunderground v.1.15,2013-10-26 17:20:00,
2013-10-26 12:30:00,54.5,35.7,29.94,NW,307,4.0,4.0,49,0.00,,,0.00,Wunderground v.1.15,2013-10-26 17:30:00,
2013-10-26 12:35:00,54.1,35.3,29.94,NNW,334,4.0,8.0,49,0.00,,,0.00,Wunderground v.1.15,2013-10-26 17:35:00,
2013-10-26 12:45:00,53.5,35.8,29.94,WSW,244,3.0,4.0,51,0.00,,,0.00,Wunderground v.1.15,2013-10-26 17:45:00,
2013-10-26 12:50:00,53.5,35.8,29.95,WSW,250,3.0,8.0,51,0.00,,,0.00,Wunderground v.1.15,2013-10-26 17:50:00,
2013-10-26 13:00:00,53.0,35.3,29.95,West,275,5.0,5.0,51,0.00,,,0.00,Wunderground v.1.15,2013-10-26 18:00:00,
2013-10-26 13:10:00,53.7,35.0,29.95,WSW,243,3.0,3.0,49,0.00,,,0.00,Wunderground v.1.15,2013-10-26 18:10:00,
2013-10-26 13:15:00,54.0,34.7,29.95,NW,315,3.0,7.0,48,0.00,,,0.00,Wunderground v.1.15,2013-10-26 18:15:00,
2013-10-26 13:25:00,53.6,34.4,29.95,NW,306,4.0,5.0,48,0.00,,,0.00,Wunderground v.1.15,2013-10-26 18:25:00,
2013-10-26 13:30:00,53.9,34.6,29.96,SSW,209,3.0,7.0,48,0.00,,,0.00,Wunderground v.1.15,2013-10-26 18:30:00,
2013-10-26 13:40:00,53.4,34.7,29.96,NW,308,3.0,5.0,49,0.00,,,0.00,Wunderground v.1.15,2013-10-26 18:40:00,
2013-10-26 13:45:00,53.7,35.0,29.96,WSW,253,3.0,5.0,49,0.00,,,0.00,Wunderground v.1.15,2013-10-26 18:45:00,
2013-10-26 13:55:00,54.7,35.9,29.96,NNW,342,3.0,6.0,49,0.00,,,0.00,Wunderground v.1.15,2013-10-26 18:55:00,
2013-10-26 14:00:00,54.0,34.2,29.97,WSW,255,3.0,3.0,47,0.00,,,0.00,Wunderground v.1.15,2013-10-26 19:00:00,
2013-10-26 14:10:00,53.5,35.3,29.97,North,5,2.0,6.0,50,0.00,,,0.00,Wunderground v.1.15,2013-10-26 19:10:00,
2013-10-26 14:20:00,53.2,35.5,29.97,NW,306,4.0,4.0,51,0.00,,,0.00,Wunderground v.1.15,2013-10-26 19:20:00,
2013-10-26 14:25:00,52.9,36.2,29.97,NW,325,3.0,4.0,53,0.00,,,0.00,Wunderground v.1.15,2013-10-26 19:25:00,
2013-10-26 14:35:00,53.7,34.5,29.98,North,355,2.0,6.0,48,0.00,,,0.00,Wunderground v.1.15,2013-10-26 19:35:00,
2013-10-26 14:40:00,53.5,34.8,29.98,NW,317,3.0,3.0,49,0.00,,,0.00,Wunderground v.1.15,2013-10-26 19:40:00,
2013-10-26 14:50:00,53.5,34.8,29.98,NW,319,4.0,4.0,49,0.00,,,0.00,Wunderground v.1.15,2013-10-26 19:50:00,
2013-10-26 15:00:00,53.3,35.6,29.98,WNW,283,2.0,4.0,51,0.00,,,0.00,Wunderground v.1.15,2013-10-26 20:00:00,
2013-10-26 15:05:00,53.2,35.0,29.99,North,360,2.0,4.0,50,0.00,,,0.00,Wunderground v.1.15,2013-10-26 20:05:00,
2013-10-26 15:15:00,53.0,34.8,29.99,North,5,3.0,5.0,50,0.00,,,0.00,Wunderground v.1.15,2013-10-26 20:15:00,
2013-10-26 15:25:00,52.9,34.8,29.99,NW,304,3.0,4.0,50,0.00,,,0.00,Wunderground v.1.15,2013-10-26 20:25:00,
2013-10-26 15:35:00,53.0,34.8,30.00,West,274,3.0,4.0,50,0.00,,,0.00,Wunderground v.1.15,2013-10-26 20:35:00,
2013-10-26 15:45:00,53.5,34.3,30.00,NNW,348,4.0,6.0,48,0.00,,,0.00,Wunderground v.1.15,2013-10-26 20:45:00,
2013-10-26 15:55:00,53.1,33.9,30.00,NNE,19,4.0,8.0,48,0.00,,,0.00,Wunderground v.1.15,2013-10-26 20:55:00,
2013-10-26 16:00:00,52.8,32.6,30.01,NNW,347,5.0,5.0,46,0.00,,,0.00,Wunderground v.1.15,2013-10-26 21:00:00,
2013-10-26 16:10:00,52.7,33.0,30.01,NNW,344,4.0,4.0,47,0.00,,,0.00,Wunderground v.1.15,2013-10-26 21:10:00,
2013-10-26 16:15:00,52.7,33.5,30.01,NNW,336,4.0,4.0,48,0.00,,,0.00,Wunderground v.1.15,2013-10-26 21:15:00,
2013-10-26 16:25:00,53.0,33.8,30.01,North,11,3.0,5.0,48,0.00,,,0.00,Wunderground v.1.15,2013-10-26 21:25:00,
2013-10-26 16:30:00,53.0,32.8,30.02,NW,309,3.0,3.0,46,0.00,,,0.00,Wunderground v.1.15,2013-10-26 21:30:00,
2013-10-26 16:40:00,52.8,33.1,30.02,NNW,338,4.0,5.0,47,0.00,,,0.00,Wunderground v.1.15,2013-10-26 21:40:00,
2013-10-26 16:45:00,52.7,33.0,30.02,NNW,344,5.0,5.0,47,0.00,,,0.00,Wunderground v.1.15,2013-10-26 21:45:00,
2013-10-26 16:55:00,52.4,33.8,30.03,NNW,342,4.0,5.0,49,0.00,,,0.00,Wunderground v.1.15,2013-10-26 21:55:00,
2013-10-26 17:05:00,52.1,34.0,30.03,NNW,338,3.0,3.0,50,0.00,,,0.00,Wunderground v.1.15,2013-10-26 22:05:00,
2013-10-26 17:10:00,52.0,33.4,30.03,NNW,342,3.0,3.0,49,0.00,,,0.00,Wunderground v.1.15,2013-10-26 22:10:00,
2013-10-26 17:20:00,51.7,33.6,30.03,West,274,2.0,2.0,50,0.00,,,0.00,Wunderground v.1.15,2013-10-26 22:20:00,
2013-10-26 17:25:00,51.6,33.6,30.03,WNW,296,2.0,2.0,50,0.00,,,0.00,Wunderground v.1.15,2013-10-26 22:25:00,
2013-10-26 17:35:00,51.2,34.2,30.04,WSW,248,0.0,1.0,52,0.00,,,0.00,Wunderground v.1.15,2013-10-26 22:35:00,
2013-10-26 17:40:00,51.0,34.0,30.04,WSW,257,1.0,1.0,52,0.00,,,0.00,Wunderground v.1.15,2013-10-26 22:40:00,
2013-10-26 17:50:00,50.6,34.1,30.05,WSW,257,0.0,0.0,53,0.00,,,0.00,Wunderground v.1.15,2013-10-26 22:50:00,
2013-10-26 18:00:00,50.1,33.6,30.05,WSW,257,1.0,1.0,53,0.00,,,0.00,Wunderground v.1.15,2013-10-26 23:00:00,
2013-10-26 18:05:00,49.8,33.3,30.05,WSW,257,0.0,1.0,53,0.00,,,0.00,Wunderground v.1.15,2013-10-26 23:05:00,
2013-10-26 18:15:00,49.0,33.1,30.05,WSW,257,0.0,0.0,54,0.00,,,0.00,Wunderground v.1.15,2013-10-26 23:15:00,
2013-10-26 18:20:00,48.7,33.2,30.05,WSW,257,0.0,0.0,55,0.00,,,0.00,Wunderground v.1.15,2013-10-26 23:20:00,
2013-10-26 18:30:00,47.8,32.4,30.06,WSW,257,0.0,0.0,55,0.00,,,0.00,Wunderground v.1.15,2013-10-26 23:30:00,
2013-10-26 18:35:00,47.5,32.6,30.06,WSW,257,0.0,0.0,56,0.00,,,0.00,Wunderground v.1.15,2013-10-26 23:35:00,
2013-10-26 18:45:00,46.9,32.0,30.07,WSW,257,0.0,0.0,56,0.00,,,0.00,Wunderground v.1.15,2013-10-26 23:45:00,
2013-10-26 18:50:00,46.6,32.2,30.07,WSW,257,0.0,0.0,57,0.00,,,0.00,Wunderground v.1.15,2013-10-26 23:50:00,
2013-10-26 19:00:00,46.2,31.8,30.07,WSW,257,0.0,0.0,57,0.00,,,0.00,Wunderground v.1.15,2013-10-27 00:00:00,
2013-10-26 19:05:00,46.0,32.0,30.07,WSW,257,0.0,0.0,58,0.00,,,0.00,Wunderground v.1.15,2013-10-27 00:05:00,
2013-10-26 19:15:00,45.6,31.7,30.08,WSW,257,0.0,0.0,58,0.00,,,0.00,Wunderground v.1.15,2013-10-27 00:15:00,
2013-10-26 19:25:00,45.2,31.7,30.08,WSW,257,0.0,0.0,59,0.00,,,0.00,Wunderground v.1.15,2013-10-27 00:25:00,
2013-10-26 19:35:00,44.7,31.7,30.08,WSW,257,0.0,0.0,60,0.00,,,0.00,Wunderground v.1.15,2013-10-27 00:35:00,
2013-10-26 19:40:00,44.3,31.7,30.08,WSW,257,0.0,0.0,61,0.00,,,0.00,Wunderground v.1.15,2013-10-27 00:40:00,
2013-10-26 19:50:00,43.6,31.4,30.08,WSW,257,0.0,0.0,62,0.00,,,0.00,Wunderground v.1.15,2013-10-27 00:50:00,
2013-10-26 19:55:00,43.2,31.4,30.09,WSW,257,0.0,0.0,63,0.00,,,0.00,Wunderground v.1.15,2013-10-27 00:55:00,
2013-10-26 20:05:00,42.5,31.2,30.09,WSW,257,0.0,0.0,64,0.00,,,0.00,Wunderground v.1.15,2013-10-27 01:05:00,
2013-10-26 20:10:00,42.2,31.3,30.09,WSW,257,0.0,0.0,65,0.00,,,0.00,Wunderground v.1.15,2013-10-27 01:10:00,
2013-10-26 20:20:00,41.7,30.8,30.09,WSW,257,0.0,0.0,65,0.00,,,0.00,Wunderground v.1.15,2013-10-27 01:20:00,
2013-10-26 20:25:00,41.4,30.9,30.09,WSW,257,0.0,0.0,66,0.00,,,0.00,Wunderground v.1.15,2013-10-27 01:25:00,
2013-10-26 20:35:00,40.8,30.7,30.09,WSW,257,0.0,0.0,67,0.00,,,0.00,Wunderground v.1.15,2013-10-27 01:35:00,
2013-10-26 20:40:00,40.5,30.8,30.09,WSW,257,0.0,0.0,68,0.00,,,0.00,Wunderground v.1.15,2013-10-27 01:40:00,
2013-10-26 20:50:00,40.0,30.6,30.10,WSW,257,0.0,0.0,69,0.00,,,0.00,Wunderground v.1.15,2013-10-27 01:50:00,
2013-10-26 21:00:00,39.4,30.1,30.10,WSW,257,0.0,0.0,69,0.00,,,0.00,Wunderground v.1.15,2013-10-27 02:00:00,
2013-10-26 21:05:00,39.1,30.1,30.10,WSW,257,0.0,0.0,70,0.00,,,0.00,Wunderground v.1.15,2013-10-27 02:05:00,
2013-10-26 21:15:00,38.5,29.9,30.11,WSW,257,0.0,0.0,71,0.00,,,0.00,Wunderground v.1.15,2013-10-27 02:15:00,
2013-10-26 21:20:00,38.2,30.0,30.11,WSW,257,0.0,0.0,72,0.00,,,0.00,Wunderground v.1.15,2013-10-27 02:20:00,
2013-10-26 21:30:00,38.2,30.0,30.11,WSW,257,0.0,0.0,72,0.00,,,0.00,Wunderground v.1.15,2013-10-27 02:30:00,
2013-10-26 21:35:00,38.1,29.9,30.11,WSW,257,0.0,0.0,72,0.00,,,0.00,Wunderground v.1.15,2013-10-27 02:35:00,
2013-10-26 21:45:00,37.5,29.6,30.11,WSW,257,0.0,0.0,73,0.00,,,0.00,Wunderground v.1.15,2013-10-27 02:45:00,
2013-10-26 21:55:00,37.4,29.9,30.12,WSW,257,0.0,0.0,74,0.00,,,0.00,Wunderground v.1.15,2013-10-27 02:55:00,
2013-10-26 22:00:00,37.3,29.8,30.12,WSW,257,0.0,0.0,74,0.00,,,0.00,Wunderground v.1.15,2013-10-27 03:00:00,
2013-10-26 22:10:00,37.0,29.8,30.12,WSW,257,0.0,0.0,75,0.00,,,0.00,Wunderground v.1.15,2013-10-27 03:10:00,
2013-10-26 22:15:00,36.9,29.7,30.12,WSW,257,0.0,0.0,75,0.00,,,0.00,Wunderground v.1.15,2013-10-27 03:15:00,
2013-10-26 22:25:00,36.5,29.7,30.12,WSW,257,0.0,0.0,76,0.00,,,0.00,Wunderground v.1.15,2013-10-27 03:25:00,
2013-10-26 22:30:00,36.2,29.4,30.11,WSW,257,0.0,0.0,76,0.00,,,0.00,Wunderground v.1.15,2013-10-27 03:30:00,
2013-10-26 22:40:00,35.9,29.4,30.11,WSW,257,0.0,0.0,77,0.00,,,0.00,Wunderground v.1.15,2013-10-27 03:40:00,
2013-10-26 22:45:00,35.7,29.2,30.11,WSW,257,0.0,0.0,77,0.00,,,0.00,Wunderground v.1.15,2013-10-27 03:45:00,
2013-10-26 22:55:00,35.3,29.4,30.11,WSW,257,0.0,0.0,79,0.00,,,0.00,Wunderground v.1.15,2013-10-27 03:55:00,
2013-10-26 23:00:00,35.1,29.2,30.11,WSW,257,0.0,0.0,79,0.00,,,0.00,Wunderground v.1.15,2013-10-27 04:00:00,
2013-10-26 23:05:00,34.9,29.0,30.11,WSW,257,0.0,0.0,79,0.00,,,0.00,Wunderground v.1.15,2013-10-27 04:05:00,
2013-10-26 23:10:00,34.8,29.3,30.11,WSW,257,0.0,0.0,80,0.00,,,0.00,Wunderground v.1.15,2013-10-27 04:10:00,
2013-10-26 23:20:00,34.6,29.1,30.11,WSW,257,0.0,0.0,80,0.00,,,0.00,Wunderground v.1.15,2013-10-27 04:20:00,
2013-10-26 23:25:00,34.6,29.1,30.11,WSW,257,0.0,0.0,80,0.00,,,0.00,Wunderground v.1.15,2013-10-27 04:25:00,
2013-10-26 23:30:00,34.4,29.2,30.11,WSW,257,0.0,0.0,81,0.00,,,0.00,Wunderground v.1.15,2013-10-27 04:30:00,
2013-10-26 23:40:00,34.3,29.1,30.11,WSW,257,0.0,0.0,81,0.00,,,0.00,Wunderground v.1.15,2013-10-27 04:40:00,
2013-10-26 23:50:00,34.1,28.9,30.10,WSW,257,0.0,0.0,81,0.00,,,0.00,Wunderground v.1.15,2013-10-27 04:50:00,
2013-10-26 23:55:00,34.0,28.8,30.10,WSW,257,0.0,0.0,81,0.00,,,0.00,Wunderground v.1.15,2013-10-27 04:55:00,